When you browse on this site, cookies collect data to enhance your experience and personalize the content and advertising you see.
Visit our Privacy Policy to learn more. By continuing to use the site, you agree to this use of cookies and data.
  • In Latvia
  • List of Countries
  • For 7 days
  • Water Temperature
  • Weather Map
  • Weather Widgets
  • user-avatar
    Login

    Hourly Weather Kabul

    Today, 27 January, Monday

    Time Temperature Precipitation Wind Pressure Humidity
    00:00 -7°C° 0 mm 2 mps 603 mmHg 61%
    01:00 -7°C° 0 mm 1 mps 603 mmHg 62%
    02:00 -7°C° 0 mm 1 mps 603 mmHg 62%
    03:00 -7°C° 0 mm 1 mps 602 mmHg 62%
    04:00 -7°C° 0 mm 1 mps 602 mmHg 63%
    05:00 -7°C° 0 mm 1 mps 602 mmHg 63%
    06:00 -7°C° 0 mm 1 mps 602 mmHg 63%
    07:00 -7°C° 0 mm 1 mps 603 mmHg 63%
    08:00 -6°C° 0 mm 1 mps 603 mmHg 64%
    09:00 -4°C° 0 mm 1 mps 603 mmHg 64%
    10:00 -2°C° 0 mm 1 mps 603 mmHg 64%
    11:00 -1°C° 0 mm 1 mps 604 mmHg 64%
    12:00 0°C° 0 mm 1 mps 604 mmHg 66%
    13:00 0°C° 0 mm 1 mps 603 mmHg 68%
    14:00 +1°C° 0 mm 1 mps 603 mmHg 71%
    15:00 0°C° 0 mm 1 mps 603 mmHg 73%
    16:00 0°C° 0 mm 1 mps 603 mmHg 75%
    17:00 -1°C° 0 mm 1 mps 603 mmHg 77%
    18:00 -2°C° 0 mm 1 mps 604 mmHg 74%
    19:00 -2°C° 0 mm 1 mps 604 mmHg 72%
    20:00 -3°C° 0 mm 1 mps 605 mmHg 70%
    21:00 -3°C° 0 mm 1 mps 605 mmHg 68%
    22:00 -4°C° 0 mm 1 mps 605 mmHg 67%
    23:00 -4°C° 0 mm 1 mps 605 mmHg 66%

    Tomorrow, 28 January, Tuesday

    Time Temperature Precipitation Wind Pressure Humidity
    00:00 -4°C° 0 mm 1 mps 605 mmHg 64%
    01:00 -6°C° 0 mm 1 mps 605 mmHg 63%
    02:00 -6°C° 0 mm 1 mps 605 mmHg 62%
    03:00 -8°C° 0 mm 2 mps 604 mmHg 61%
    04:00 -8°C° 0 mm 2 mps 604 mmHg 60%
    05:00 -9°C° 0 mm 2 mps 603 mmHg 60%
    06:00 -9°C° 0 mm 2 mps 603 mmHg 59%
    07:00 -9°C° 0 mm 2 mps 603 mmHg 58%
    08:00 -9°C° 0 mm 2 mps 603 mmHg 57%
    09:00 -8°C° 0 mm 2 mps 603 mmHg 58%
    10:00 -7°C° 0 mm 2 mps 604 mmHg 59%
    11:00 -5°C° 0 mm 2 mps 604 mmHg 60%
    12:00 -4°C° 0 mm 2 mps 603 mmHg 60%
    13:00 -4°C° 0 mm 2 mps 603 mmHg 61%
    14:00 -3°C° 0 mm 2 mps 602 mmHg 61%
    15:00 -4°C° 0 mm 2 mps 602 mmHg 63%
    16:00 -5°C° 0 mm 2 mps 602 mmHg 64%
    17:00 -6°C° 0 mm 2 mps 601 mmHg 65%
    18:00 -7°C° 0 mm 2 mps 602 mmHg 61%
    19:00 -7°C° 0 mm 2 mps 602 mmHg 56%
    20:00 -8°C° 0 mm 2 mps 603 mmHg 52%
    21:00 -8°C° 0 mm 2 mps 603 mmHg 51%
    22:00 -9°C° 0 mm 2 mps 603 mmHg 50%
    23:00 -9°C° 0 mm 2 mps 603 mmHg 49%

    Day after tomorrow, 29 January, Wednesday

    Time Temperature Precipitation Wind Pressure Humidity
    00:00 -9°C° 0 mm 2 mps 603 mmHg 48%
    01:00 -9°C° 0 mm 2 mps 602 mmHg 48%
    02:00 -10°C° 0 mm 2 mps 602 mmHg 47%
    03:00 -10°C° 0 mm 2 mps 601 mmHg 47%
    04:00 -10°C° 0 mm 2 mps 601 mmHg 47%
    05:00 -12°C° 0 mm 2 mps 601 mmHg 47%
    06:00 -12°C° 0 mm 2 mps 601 mmHg 46%
    07:00 -12°C° 0 mm 2 mps 601 mmHg 46%
    08:00 -12°C° 0 mm 2 mps 602 mmHg 45%
    09:00 -9°C° 0 mm 2 mps 602 mmHg 48%
    10:00 -8°C° 0 mm 2 mps 603 mmHg 50%
    11:00 -6°C° 0 mm 2 mps 603 mmHg 52%
    12:00 -5°C° 0 mm 2 mps 603 mmHg 53%
    13:00 -4°C° 0 mm 2 mps 603 mmHg 55%
    14:00 -4°C° 0 mm 2 mps 603 mmHg 56%
    15:00 -4°C° 0 mm 2 mps 603 mmHg 58%
    16:00 -3°C° 0 mm 1 mps 603 mmHg 59%
    17:00 -4°C° 0 mm 1 mps 602 mmHg 61%
    18:00 -6°C° 0 mm 1 mps 603 mmHg 58%
    19:00 -6°C° 0 mm 1 mps 603 mmHg 54%
    20:00 -8°C° 0 mm 2 mps 604 mmHg 51%
    21:00 -8°C° 0 mm 2 mps 604 mmHg 50%
    22:00 -8°C° 0 mm 2 mps 604 mmHg 48%
    23:00 -9°C° 0 mm 2 mps 604 mmHg 47%

    30 January, Thursday

    Time Temperature Precipitation Wind Pressure Humidity
    00:00 -9°C° 0 mm 2 mps 604 mmHg 47%
    01:00 -9°C° 0 mm 2 mps 604 mmHg 46%
    02:00 -9°C° 0 mm 2 mps 604 mmHg 46%
    03:00 -10°C° 0 mm 2 mps 603 mmHg 45%
    04:00 -10°C° 0 mm 2 mps 603 mmHg 44%
    05:00 -10°C° 0 mm 2 mps 603 mmHg 43%
    06:00 -10°C° 0 mm 2 mps 603 mmHg 42%
    07:00 -10°C° 0 mm 2 mps 603 mmHg 41%
    08:00 -10°C° 0 mm 2 mps 603 mmHg 39%
    09:00 -8°C° 0 mm 2 mps 604 mmHg 42%
    10:00 -7°C° 0 mm 2 mps 604 mmHg 44%
    11:00 -5°C° 0 mm 2 mps 604 mmHg 47%
    12:00 -4°C° 0 mm 2 mps 604 mmHg 48%
    13:00 -3°C° 0 mm 2 mps 604 mmHg 50%
    14:00 -1°C° 0 mm 1 mps 603 mmHg 52%
    15:00 -1°C° 0 mm 1 mps 603 mmHg 54%
    16:00 -2°C° 0 mm 1 mps 602 mmHg 56%
    17:00 -3°C° 0 mm 1 mps 602 mmHg 58%
    18:00 -3°C° 0 mm 1 mps 602 mmHg 56%
    19:00 -4°C° 0 mm 1 mps 603 mmHg 54%
    20:00 -4°C° 0 mm 1 mps 603 mmHg 52%
    21:00 -4°C° 0 mm 1 mps 603 mmHg 52%
    22:00 -3°C° 0 mm 1 mps 604 mmHg 53%
    23:00 -3°C° 0 mm 1 mps 604 mmHg 54%

    31 January, Friday

    Time Temperature Precipitation Wind Pressure Humidity
    00:00 -3°C° 0 mm 1 mps 604 mmHg 54%
    01:00 -4°C° 0 mm 1 mps 603 mmHg 55%
    02:00 -4°C° 0 mm 1 mps 603 mmHg 56%
    03:00 -4°C° 0 mm 1 mps 603 mmHg 57%
    04:00 -4°C° 0 mm 1 mps 602 mmHg 58%
    05:00 -4°C° 0 mm 1 mps 602 mmHg 60%
    06:00 -4°C° 0 mm 1 mps 602 mmHg 61%
    07:00 -4°C° 0 mm 1 mps 603 mmHg 62%
    08:00 -4°C° 0 mm 1 mps 603 mmHg 63%
    09:00 -3°C° 0 mm 1 mps 603 mmHg 63%
    10:00 -2°C° 0 mm 1 mps 604 mmHg 63%
    11:00 -1°C° 0 mm 1 mps 604 mmHg 63%
    12:00 0°C° 0 mm 1 mps 604 mmHg 65%
    13:00 0°C° 0 mm 1 mps 603 mmHg 68%
    14:00 -1°C° 0 mm 2 mps 603 mmHg 70%
    15:00 -2°C° 0 mm 2 mps 603 mmHg 71%
    16:00 -3°C° 0 mm 2 mps 602 mmHg 71%
    17:00 -4°C° 0 mm 2 mps 602 mmHg 72%
    18:00 -4°C° 0 mm 2 mps 603 mmHg 69%
    19:00 -5°C° 0 mm 2 mps 603 mmHg 66%
    20:00 -6°C° 0 mm 2 mps 604 mmHg 63%
    21:00 -6°C° 0 mm 2 mps 604 mmHg 62%
    22:00 -6°C° 0 mm 2 mps 604 mmHg 60%
    23:00 -6°C° 0 mm 2 mps 604 mmHg 58%

    1 February, Saturday

    Time Temperature Precipitation Wind Pressure Humidity
    00:00 -7°C° 0 mm 2 mps 604 mmHg 58%
    01:00 -7°C° 0 mm 2 mps 604 mmHg 57%
    02:00 -7°C° 0 mm 2 mps 604 mmHg 56%
    03:00 -8°C° 0 mm 2 mps 604 mmHg 56%
    04:00 -8°C° 0 mm 2 mps 604 mmHg 55%
    05:00 -8°C° 0 mm 2 mps 603 mmHg 54%
    06:00 -8°C° 0 mm 2 mps 604 mmHg 53%
    07:00 -8°C° 0 mm 2 mps 604 mmHg 52%
    08:00 -8°C° 0 mm 2 mps 604 mmHg 51%
    09:00 -7°C° 0 mm 2 mps 604 mmHg 52%
    10:00 -5°C° 0 mm 2 mps 605 mmHg 53%
    11:00 -4°C° 0 mm 2 mps 605 mmHg 54%
    12:00 -3°C° 0 mm 2 mps 605 mmHg 55%
    13:00 -3°C° 0 mm 2 mps 605 mmHg 56%
    14:00 0°C° 0 mm 1 mps 604 mmHg 58%
    15:00 -1°C° 0 mm 1 mps 604 mmHg 59%
    16:00 -1°C° 0 mm 1 mps 604 mmHg 61%
    17:00 -2°C° 0 mm 1 mps 604 mmHg 62%
    18:00 -3°C° 0 mm 1 mps 605 mmHg 59%
    19:00 -3°C° 0 mm 1 mps 605 mmHg 56%
    20:00 -4°C° 0 mm 1 mps 605 mmHg 53%
    21:00 -6°C° 0 mm 2 mps 606 mmHg 52%
    22:00 -6°C° 0 mm 2 mps 606 mmHg 51%
    23:00 -7°C° 0 mm 2 mps 606 mmHg 50%
    Show more